Torna al catalogo

STARLINK-34715

AttivoComunicazioniVLEO
NORAD 64931·PAYLOAD·🇺🇸 United States

Lanciato Jul 26, 2025 da Cape Canaveral Space Force Station

Loading…

Prossimi Passaggi (prossime 24 ore)

TLE

AggiornatoSource: CelesTrak SupGP

Epoca: Sep 14, 2026, 21:02 UTC

1 64931C 25157AD  26257.87687500  .00011092  00000+0  32754-3 0  2579
2 64931  53.1572 183.9966 0001393 110.9498 128.0630 15.34401447    12

Traccia STARLINK-34715 in tempo reale con AllMySat

Download on the App Store